Date String (YYYY-MM-DD hh:mm:ss) UTC,Instrument flags,Ambient pressure (hPa),Sample flow (lpm),Bypass flow (lpm),Sample temperature (°C),Ambient temperature (°C),ASC tube jacket temperature (°C),LED temperature (°C),Box temperature (°C),Sample RH (%),Span deviation,Mass concentration (μg/m³),Mass concentration (μg/m³),Mass concentration (μg/m³)
DateTimeUTC,F1_M11,P_M11,Q1_M11,Q2_M11,T1_M11,T2_M11,T3_M11,T4_M11,T5_M11,U1_M11,ZSPAN_M11,X0_M11,X2_M11,X1_M11
2022-02-10 07:00:00,,0830.3,5.02,0.00,22.6,21.7,00.0,31.7,24.2,16.7,0000.0,0008.55,0003.35,0002.75
2022-02-10 07:01:00,,0830.3,4.99,0.00,22.5,21.7,00.0,31.7,24.2,16.7,0000.0,0008.85,0003.32,0002.70
2022-02-10 07:02:00,,0830.3,4.99,0.00,22.5,21.7,00.0,31.7,24.2,16.7,0000.0,0008.89,0003.30,0002.66
2022-02-10 07:03:00,,0830.3,5.02,0.00,22.5,21.6,00.0,31.7,24.1,16.7,0000.0,0008.39,0003.27,0002.61
2022-02-10 07:04:00,,0830.2,4.98,0.00,22.4,21.6,00.0,31.6,24.1,16.7,0000.0,0008.32,0003.23,0002.58
2022-02-10 07:05:00,,0830.2,5.01,0.00,22.4,21.6,00.0,31.6,24.1,16.8,0000.0,0008.16,0003.26,0002.56
2022-02-10 07:06:00,,0830.2,5.00,0.00,22.4,21.5,00.0,31.6,24.0,16.8,0000.0,0007.96,0003.26,0002.52
2022-02-10 07:07:00,,0830.2,4.99,0.00,22.4,21.5,00.0,31.6,24.0,16.8,0000.0,0008.00,0003.25,0002.50
2022-02-10 07:08:00,,0830.1,5.01,0.00,22.3,21.5,00.0,31.5,23.9,16.8,0000.0,0008.09,0003.22,0002.45
2022-02-10 07:09:00,,0830.1,4.99,0.00,22.3,21.4,00.0,31.5,23.9,16.9,0000.0,0008.24,0003.19,0002.43
2022-02-10 07:10:00,,0830.1,5.00,0.00,22.2,21.4,00.0,31.5,23.8,16.9,0000.0,0008.44,0003.20,0002.43
2022-02-10 07:11:00,,0830.1,5.01,0.00,22.2,21.4,00.0,31.5,23.8,16.9,0000.0,0008.41,0003.22,0002.45
2022-02-10 07:12:00,,0830.1,4.98,0.00,22.2,21.3,00.0,31.4,23.8,17.0,0000.0,0008.46,0003.22,0002.43
2022-02-10 07:13:00,,0830.1,5.02,0.00,22.1,21.3,00.0,31.4,23.7,17.0,0000.0,0008.92,0003.18,0002.40
2022-02-10 07:14:00,,0830.1,5.00,0.00,22.1,21.3,00.0,31.4,23.7,17.1,0000.0,0008.63,0003.18,0002.38
2022-02-10 07:15:00,,0830.1,5.00,0.00,22.0,21.3,00.0,31.3,23.7,17.0,0000.0,0008.91,0003.22,0002.38
2022-02-10 07:16:00,,0830.1,5.00,0.00,22.0,21.2,00.0,31.3,23.6,17.0,0000.0,0008.91,0003.19,0002.38
2022-02-10 07:17:00,,0830.1,4.99,0.00,22.0,21.2,00.0,31.3,23.6,17.0,0000.0,0008.96,0003.20,0002.41
2022-02-10 07:18:00,,0830.0,5.01,0.00,22.0,21.1,00.0,31.3,23.5,17.0,0000.0,0009.00,0003.22,0002.45
2022-02-10 07:19:00,,0830.0,4.99,0.00,21.9,21.1,00.0,31.2,23.5,17.0,0000.0,0008.70,0003.28,0002.52
2022-02-10 07:20:00,,0830.0,5.01,0.00,21.9,21.1,00.0,31.2,23.5,17.0,0000.0,0008.52,0003.34,0002.61
2022-02-10 07:21:00,,0830.0,5.00,0.00,21.9,21.1,00.0,31.2,23.5,17.0,0000.0,0008.92,0003.38,0002.68
2022-02-10 07:22:00,,0830.0,4.99,0.00,21.8,21.0,00.0,31.1,23.4,17.0,0000.0,0008.69,0003.40,0002.75
2022-02-10 07:23:00,,0829.9,5.00,0.00,21.8,21.0,00.0,31.1,23.4,17.1,0000.0,0008.64,0003.44,0002.83
2022-02-10 07:24:00,,0829.9,5.01,0.00,21.8,21.0,00.0,31.1,23.4,17.1,0000.0,0008.56,0003.48,0002.90
2022-02-10 07:25:00,,0829.8,4.99,0.00,21.7,20.9,00.0,31.1,23.4,17.1,0000.0,0008.52,0003.50,0002.94
2022-02-10 07:26:00,,0829.8,5.01,0.00,21.7,20.9,00.0,31.0,23.4,17.2,0000.0,0008.25,0003.49,0002.97
2022-02-10 07:27:00,,0829.8,5.00,0.00,21.7,20.9,00.0,31.0,23.3,17.2,0000.0,0008.16,0003.51,0003.01
2022-02-10 07:28:00,,0829.8,5.01,0.00,21.7,20.8,00.0,31.0,23.3,17.3,0000.0,0008.21,0003.49,0003.02
2022-02-10 07:29:00,,0829.8,4.99,0.00,21.6,20.8,00.0,30.9,23.3,17.3,0000.0,0008.25,0003.50,0003.01
2022-02-10 07:30:00,,0829.8,5.01,0.00,21.6,20.8,00.0,30.9,23.2,17.3,0000.0,0008.28,0003.48,0002.96
2022-02-10 07:31:00,,0829.8,4.99,0.00,21.6,20.8,00.0,30.9,23.2,17.4,0000.0,0008.14,0003.44,0002.92
2022-02-10 07:32:00,,0829.8,4.99,0.00,21.6,20.8,00.0,30.9,23.2,17.4,0000.0,0007.99,0003.42,0002.87
2022-02-10 07:33:00,,0829.8,5.01,0.00,21.5,20.7,00.0,30.8,23.2,17.5,0000.0,0008.01,0003.42,0002.82
2022-02-10 07:34:00,,0829.8,5.00,0.00,21.5,20.7,00.0,30.8,23.1,17.5,0000.0,0007.58,0003.38,0002.77
2022-02-10 07:35:00,,0829.8,5.00,0.00,21.5,20.7,00.0,30.8,23.1,17.5,0000.0,0007.10,0003.38,0002.74
2022-02-10 07:36:00,,0829.8,4.98,0.00,21.4,20.7,00.0,30.7,23.1,17.6,0000.0,0007.44,0003.37,0002.73
2022-02-10 07:37:00,,0829.8,5.01,0.00,21.4,20.7,00.0,30.7,23.0,17.6,0000.0,0007.60,0003.35,0002.72
2022-02-10 07:38:00,,0829.8,5.00,0.00,21.4,20.6,00.0,30.7,23.0,17.6,0000.0,0007.60,0003.36,0002.70
2022-02-10 07:39:00,,0829.8,4.99,0.00,21.4,20.6,00.0,30.7,23.0,17.6,0000.0,0007.56,0003.38,0002.69
2022-02-10 07:40:00,,0829.8,5.00,0.00,21.4,20.5,00.0,30.6,23.0,17.6,0000.0,0007.98,0003.37,0002.67
2022-02-10 07:41:00,,0829.7,5.01,0.00,21.3,20.5,00.0,30.6,23.0,17.7,0000.0,0008.21,0003.35,0002.65
2022-02-10 07:42:00,,0829.7,5.00,0.00,21.3,20.5,00.0,30.6,22.9,17.7,0000.0,0008.38,0003.36,0002.64
2022-02-10 07:43:00,,0829.6,5.00,0.00,21.3,20.4,00.0,30.6,22.9,17.7,0000.0,0008.23,0003.33,0002.62
2022-02-10 07:44:00,,0829.6,5.02,0.00,21.3,20.4,00.0,30.5,22.9,17.7,0000.0,0008.12,0003.30,0002.62
2022-02-10 07:45:00,,0829.6,5.00,0.00,21.2,20.4,00.0,30.5,22.9,17.7,0000.0,0008.13,0003.28,0002.60
2022-02-10 07:46:00,,0829.7,5.01,0.00,21.2,20.4,00.0,30.5,22.8,17.8,0000.0,0008.18,0003.25,0002.56
2022-02-10 07:47:00,,0829.6,5.01,0.00,21.2,20.4,00.0,30.5,22.8,17.8,0000.0,0007.97,0003.23,0002.52
2022-02-10 07:48:00,,0829.6,5.00,0.00,21.2,20.3,00.0,30.4,22.8,17.8,0000.0,0007.71,0003.21,0002.47
2022-02-10 07:49:00,,0829.6,5.00,0.00,21.1,20.3,00.0,30.4,22.8,17.8,0000.0,0007.71,0003.14,0002.41
2022-02-10 07:50:00,,0829.6,4.99,0.00,21.1,20.3,00.0,30.4,22.7,17.8,0000.0,0007.51,0003.04,0002.35
2022-02-10 07:51:00,,0829.5,4.99,0.00,21.1,20.3,00.0,30.4,22.7,17.8,0000.0,0006.60,0002.95,0002.30
2022-02-10 07:52:00,,0829.6,5.01,0.00,21.1,20.2,00.0,30.3,22.7,17.8,0000.0,0005.84,0002.84,0002.24
2022-02-10 07:53:00,,0829.6,4.99,0.00,21.0,20.2,00.0,30.3,22.6,17.9,0000.0,0005.96,0002.80,0002.20
2022-02-10 07:54:00,,0829.6,5.00,0.00,21.0,20.2,00.0,30.3,22.6,17.9,0000.0,0005.80,0002.81,0002.17
2022-02-10 07:55:00,,0829.7,5.00,0.00,21.1,20.6,00.0,30.3,22.8,17.8,0000.0,0005.52,0002.71,0002.12
2022-02-10 07:56:00,,0829.6,5.01,0.00,21.2,21.4,00.0,30.3,23.1,17.7,0000.0,0005.44,0002.67,0002.08
2022-02-10 07:57:00,,0829.7,5.00,0.00,21.4,22.1,00.0,30.4,23.4,17.5,0000.0,0005.14,0002.59,0002.04
2022-02-10 07:58:00,,0829.6,5.01,0.00,21.5,22.1,00.0,30.4,23.5,17.4,0000.0,0005.17,0002.58,0002.00
2022-02-10 07:59:00,,0829.6,4.98,0.00,21.5,21.8,00.0,30.4,23.3,17.3,0000.0,0006.22,0002.53,0001.96
